This demonstration page uses our WeatherBlox Daily Observations layout. Learn more.

Left ArrowRight Arrow

Hourly Observations for June 15, 2021

Temp ( °F °C ) Dew Point ( °F °C ) Humidity (%) Winds ( mph kmh ) Pressure ( in mb ) Visibility ( mi km ) Precip ( " mm )
12:51 am 00:51 Mostly Clear 84 28.9 33 0.6 16 16 N 5 7 29.72 1007 10 16 N/A
1:51 am 01:51 Clear 85 29.4 34 1.1 16 16 N N/A 29.73 1007 10 16 N/A
2:51 am 02:51 Clear 91 32.8 40 4.4 17 17 E 16 26 29.73 1007 10 16 N/A
3:51 am 03:51 Clear 89 31.7 50 10 26 26 E 13 20 29.76 1008 10 16 N/A
4:51 am 04:51 Clear 82 27.8 44 6.7 26 26 ESE 5 7 29.80 1009 10 16 N/A
5:51 am 05:51 Sunny 82 27.8 44 6.7 26 26 ESE 7 11 29.82 1010 10 16 N/A
6:51 am 06:51 Sunny 87 30.6 48 8.9 26 26 SE 6 9 29.83 1010 10 16 N/A
7:51 am 07:51 Sunny 92 33.3 49 9.4 23 23 SSE 9 15 29.83 1010 10 16 N/A
8:51 am 08:51 Mostly Sunny 95 35 48 8.9 20 20 SE 9 15 29.82 1010 10 16 N/A
9:51 am 09:51 Mostly Sunny 99 37.2 44 6.7 15 15 SSE 18 30 29.81 1010 10 16 N/A
10:51 am 10:51 Mostly Sunny 103 39.4 44 6.7 13 13 SSE 12 19 29.80 1009 10 16 N/A
11:51 am 11:51 Sunny 105 40.6 43 6.1 12 12 SSE 13 20 29.79 1009 10 16 N/A
12:51 pm 12:51 Sunny 107 41.7 44 6.7 12 12 S 17 28 29.78 1008 10 16 N/A
1:51 pm 13:51 Mostly Cloudy 107 41.7 44 6.7 12 12 S 12 19 29.74 1007 10 16 N/A
2:51 pm 14:51 Cloudy 108 42.2 42 5.6 11 11 VRB 7 11 29.72 1006 10 16 N/A
3:51 pm 15:51 Cloudy 109 42.8 35 1.7 8 8 SSE 15 24 29.70 1006 10 16 N/A
4:51 pm 16:51 Mostly Cloudy 108 42.2 35 1.7 8 8 SSE 15 24 29.71 1006 10 16 N/A
5:51 pm 17:51 Cloudy 106 41.1 34 1.1 8 8 SSE 18 30 29.72 1006 10 16 N/A
6:51 pm 18:51 Mostly Cloudy 102 38.9 35 1.7 10 10 SSE 14 22 29.74 1007 10 16 N/A
7:51 pm 19:51 Mostly Cloudy 99 37.2 34 1.1 10 10 SE 15 24 29.75 1008 10 16 N/A
8:51 pm 20:51 Mostly Cloudy 96 35.6 33 0.6 11 11 ESE 8 13 29.78 1009 10 16 N/A
9:51 pm 21:51 Partly Cloudy 92 33.3 33 0.6 12 12 E 9 15 29.81 1010 10 16 N/A
10:51 pm 22:51 Mostly Clear 92 33.3 33 0.6 12 12 E 10 17 29.82 1010 10 16 N/A
11:51 pm 23:51 Clear 88 31.1 34 1.1 15 15 VRB 7 11 29.82 1010 10 16 N/A

Powered by AerisWeather